• In Uzbekistan
  • List of Countries
  • For 7 days
  • Water Temperature
  • Satellite Maps
  • Weather Map
  • Weather Widgets
  • user-avatar
    Login

    Hourly Weather Chavantes

    Today, 18 October, Wednesday

    Time Temperature Precipitation Wind Pressure Humidity
    00:00 +22°C° 0 mm 4 mps 716 mmHg 78%
    01:00 +22°C° 0 mm 4 mps 716 mmHg 79%
    02:00 +21°C° 0 mm 4 mps 716 mmHg 80%
    03:00 +21°C° 0 mm 4 mps 715 mmHg 80%
    04:00 +21°C° 0 mm 3 mps 715 mmHg 81%
    05:00 +21°C° 0 mm 3 mps 715 mmHg 81%
    06:00 +20°C° 0 mm 3 mps 716 mmHg 81%
    07:00 +24°C° 0 mm 3 mps 716 mmHg 72%
    08:00 +26°C° 0 mm 4 mps 717 mmHg 63%
    09:00 +29°C° 0 mm 4 mps 717 mmHg 53%
    10:00 +32°C° 0 mm 4 mps 717 mmHg 48%
    11:00 +34°C° 0 mm 3 mps 717 mmHg 43%
    12:00 +36°C° 0 mm 3 mps 717 mmHg 38%
    13:00 +36°C° 0 mm 3 mps 716 mmHg 35%
    14:00 +37°C° 0 mm 2 mps 715 mmHg 32%
    15:00 +37°C° 0 mm 2 mps 714 mmHg 29%
    16:00 +35°C° 0 mm 1 mps 714 mmHg 33%
    17:00 +34°C° 0 mm 1 mps 714 mmHg 36%
    18:00 +32°C° 0 mm 1 mps 714 mmHg 39%
    19:00 +31°C° 0 mm 1 mps 714 mmHg 41%
    20:00 +30°C° 0 mm 1 mps 714 mmHg 42%
    21:00 +28°C° 0 mm 2 mps 714 mmHg 44%
    22:00 +27°C° 0 mm 2 mps 714 mmHg 45%
    23:00 +27°C° 0 mm 2 mps 714 mmHg 46%

    Tomorrow, 19 October, Thursday

    Time Temperature Precipitation Wind Pressure Humidity
    00:00 +26°C° 0 mm 2 mps 714 mmHg 48%
    01:00 +26°C° 0 mm 3 mps 714 mmHg 48%
    02:00 +26°C° 0 mm 3 mps 713 mmHg 48%
    03:00 +25°C° 0 mm 3 mps 713 mmHg 48%
    04:00 +25°C° 0 mm 3 mps 713 mmHg 49%
    05:00 +25°C° 0 mm 3 mps 713 mmHg 50%
    06:00 +24°C° 0 mm 3 mps 713 mmHg 51%
    07:00 +26°C° 0 mm 3 mps 714 mmHg 46%
    08:00 +29°C° 0 mm 4 mps 715 mmHg 41%
    09:00 +32°C° 0 mm 5 mps 715 mmHg 36%
    10:00 +34°C° 0 mm 4 mps 715 mmHg 33%
    11:00 +36°C° 0 mm 4 mps 715 mmHg 30%
    12:00 +37°C° 0 mm 4 mps 715 mmHg 27%
    13:00 +38°C° 0 mm 4 mps 714 mmHg 27%
    14:00 +38°C° 0 mm 3 mps 713 mmHg 26%
    15:00 +38°C° 0 mm 3 mps 713 mmHg 25%
    16:00 +36°C° 0 mm 3 mps 712 mmHg 31%
    17:00 +34°C° 0 mm 3 mps 712 mmHg 38%
    18:00 +31°C° 0 mm 3 mps 712 mmHg 44%
    19:00 +29°C° 0.2 mm 4 mps 713 mmHg 51%
    20:00 +28°C° 0.2 mm 4 mps 713 mmHg 59%
    21:00 +26°C° 0.2 mm 4 mps 714 mmHg 67%
    22:00 +26°C° 0 mm 4 mps 713 mmHg 69%
    23:00 +25°C° 0 mm 3 mps 713 mmHg 71%

    Day after tomorrow, 20 October, Friday

    Time Temperature Precipitation Wind Pressure Humidity
    00:00 +25°C° 0 mm 3 mps 713 mmHg 74%
    01:00 +24°C° 0 mm 2 mps 713 mmHg 75%
    02:00 +24°C° 0 mm 2 mps 713 mmHg 76%
    03:00 +24°C° 0 mm 1 mps 712 mmHg 78%
    04:00 +24°C° 0 mm 2 mps 712 mmHg 76%
    05:00 +24°C° 0 mm 2 mps 713 mmHg 74%
    06:00 +25°C° 0 mm 3 mps 713 mmHg 72%
    07:00 +26°C° 0 mm 4 mps 713 mmHg 68%
    08:00 +27°C° 0 mm 4 mps 714 mmHg 64%
    09:00 +28°C° 0 mm 5 mps 714 mmHg 60%
    10:00 +30°C° 0 mm 4 mps 714 mmHg 53%
    11:00 +32°C° 0 mm 4 mps 714 mmHg 46%
    12:00 +34°C° 0 mm 3 mps 714 mmHg 40%
    13:00 +34°C° 0 mm 3 mps 713 mmHg 38%
    14:00 +34°C° 0 mm 3 mps 713 mmHg 36%
    15:00 +34°C° 0 mm 3 mps 712 mmHg 35%
    16:00 +32°C° 0 mm 2 mps 712 mmHg 37%
    17:00 +31°C° 0 mm 2 mps 711 mmHg 39%
    18:00 +29°C° 0 mm 2 mps 711 mmHg 41%
    19:00 +29°C° 0.1 mm 2 mps 712 mmHg 43%
    20:00 +28°C° 0.1 mm 3 mps 712 mmHg 46%
    21:00 +27°C° 0.1 mm 3 mps 712 mmHg 49%
    22:00 +27°C° 0 mm 4 mps 712 mmHg 54%
    23:00 +26°C° 0 mm 4 mps 712 mmHg 59%

    21 October, Saturday

    Time Temperature Precipitation Wind Pressure Humidity
    00:00 +25°C° 0 mm 4 mps 712 mmHg 64%
    01:00 +25°C° 0 mm 4 mps 711 mmHg 65%
    02:00 +25°C° 0 mm 3 mps 711 mmHg 66%
    03:00 +25°C° 0 mm 3 mps 711 mmHg 67%
    04:00 +24°C° 0 mm 2 mps 711 mmHg 68%
    05:00 +24°C° 0 mm 2 mps 711 mmHg 69%
    06:00 +24°C° 0 mm 1 mps 712 mmHg 71%
    07:00 +24°C° 0.2 mm 2 mps 712 mmHg 69%
    08:00 +25°C° 0.2 mm 2 mps 713 mmHg 67%
    09:00 +26°C° 0.2 mm 2 mps 713 mmHg 65%
    10:00 +27°C° 0 mm 2 mps 713 mmHg 61%
    11:00 +28°C° 0 mm 2 mps 713 mmHg 57%
    12:00 +28°C° 0 mm 2 mps 713 mmHg 53%
    13:00 +29°C° 0 mm 3 mps 713 mmHg 53%
    14:00 +29°C° 0 mm 3 mps 713 mmHg 53%
    15:00 +29°C° 0 mm 3 mps 712 mmHg 53%
    16:00 +28°C° 0.2 mm 3 mps 713 mmHg 58%
    17:00 +27°C° 0.2 mm 4 mps 713 mmHg 63%
    18:00 +26°C° 0.2 mm 5 mps 713 mmHg 68%
    19:00 +25°C° 0.4 mm 4 mps 713 mmHg 73%
    20:00 +24°C° 0.4 mm 3 mps 713 mmHg 79%
    21:00 +21°C° 0.4 mm 2 mps 713 mmHg 85%
    22:00 +21°C° 0.3 mm 2 mps 713 mmHg 83%
    23:00 +21°C° 0.3 mm 2 mps 713 mmHg 81%

    22 October, Sunday

    Time Temperature Precipitation Wind Pressure Humidity
    00:00 +21°C° 0.3 mm 2 mps 713 mmHg 79%
    01:00 +21°C° 0 mm 2 mps 712 mmHg 79%
    02:00 +22°C° 0 mm 1 mps 712 mmHg 78%
    03:00 +22°C° 0 mm 1 mps 712 mmHg 77%
    04:00 +22°C° 0.1 mm 1 mps 712 mmHg 79%
    05:00 +22°C° 0.1 mm 1 mps 713 mmHg 81%
    06:00 +22°C° 0.1 mm 1 mps 713 mmHg 84%
    07:00 +23°C° 0.1 mm 1 mps 714 mmHg 81%
    08:00 +24°C° 0.1 mm 1 mps 714 mmHg 78%
    09:00 +25°C° 0.1 mm 1 mps 715 mmHg 75%
    10:00 +25°C° 0.1 mm 2 mps 715 mmHg 71%
    11:00 +26°C° 0.1 mm 3 mps 714 mmHg 67%
    12:00 +27°C° 0.1 mm 4 mps 714 mmHg 63%
    13:00 +26°C° 0.7 mm 3 mps 714 mmHg 69%
    14:00 +26°C° 0.7 mm 3 mps 713 mmHg 75%
    15:00 +25°C° 0.7 mm 2 mps 712 mmHg 80%
    16:00 +24°C° 1.1 mm 2 mps 712 mmHg 84%
    17:00 +24°C° 1.1 mm 2 mps 712 mmHg 88%
    18:00 +23°C° 1.1 mm 1 mps 713 mmHg 92%
    19:00 +23°C° 0.5 mm 1 mps 713 mmHg 92%
    20:00 +23°C° 0.5 mm 1 mps 713 mmHg 92%
    21:00 +22°C° 0.5 mm 1 mps 713 mmHg 92%
    22:00 +22°C° 0.1 mm 1 mps 713 mmHg 91%
    23:00 +22°C° 0.1 mm 1 mps 713 mmHg 91%

    23 October, Monday

    Time Temperature Precipitation Wind Pressure Humidity
    00:00 +22°C° 0.1 mm 1 mps 713 mmHg 90%
    01:00 +22°C° 0.2 mm 1 mps 713 mmHg 91%
    02:00 +21°C° 0.2 mm 1 mps 713 mmHg 91%
    03:00 +20°C° 0.2 mm 2 mps 713 mmHg 92%
    04:00 +20°C° 0.1 mm 2 mps 713 mmHg 92%
    05:00 +20°C° 0.1 mm 3 mps 713 mmHg 93%
    06:00 +19°C° 0.1 mm 3 mps 714 mmHg 93%
    07:00 +20°C° 0.1 mm 3 mps 714 mmHg 87%
    08:00 +22°C° 0.1 mm 3 mps 715 mmHg 82%
    09:00 +23°C° 0.1 mm 4 mps 715 mmHg 76%
    10:00 +24°C° 0 mm 3 mps 715 mmHg 74%
    11:00 +25°C° 0 mm 3 mps 715 mmHg 72%
    12:00 +26°C° 0 mm 3 mps 714 mmHg 70%
    13:00 +27°C° 0.1 mm 2 mps 714 mmHg 66%
    14:00 +28°C° 0.1 mm 2 mps 713 mmHg 62%
    15:00 +29°C° 0.1 mm 2 mps 713 mmHg 58%
    16:00 +28°C° 0.2 mm 2 mps 713 mmHg 61%
    17:00 +27°C° 0.2 mm 2 mps 713 mmHg 65%
    18:00 +26°C° 0.2 mm 2 mps 713 mmHg 68%
    19:00 +25°C° 0 mm 2 mps 714 mmHg 72%
    20:00 +24°C° 0 mm 3 mps 714 mmHg 77%
    21:00 +21°C° 0 mm 3 mps 714 mmHg 81%
    22:00 +20°C° 0 mm 3 mps 714 mmHg 82%
    23:00 +19°C° 0 mm 4 mps 714 mmHg 83%
    Show more